| time (UTC) | temp C | wind direction | speed KPH | gust KPH | rain 1hr cm | rain 24hr cm | rain mn cm | humidity % | barometer mb |
| 20260906113045 | 21 | 0 | 0.0 | 0.0 | 0.00 | 0.00 | 0.00 | 96 | 1013.4 |
| 20260906111554 | 21 | 0 | 0.0 | 0.0 | 0.00 | 0.00 | 0.00 | 96 | 1013.3 |
| 20260906110055 | 21 | 0 | 0.0 | 0.0 | 0.00 | 0.00 | 0.00 | 96 | 1013.3 |
| 20260906104546 | 21 | 0 | 0.0 | 0.0 | 0.00 | 0.00 | 0.00 | 96 | 1013.4 |
| 20260906103044 | 21 | 0 | 0.0 | 0.0 | 0.00 | 0.00 | 0.00 | 96 | 1013.2 |
| 20260906101553 | 21 | 0 | 0.0 | 0.0 | 0.00 | 0.00 | 0.00 | 96 | 1013.2 |
| 20260906100049 | 21 | 0 | 0.0 | 0.0 | 0.00 | 0.00 | 0.00 | 96 | 1013.2 |
| 20260906094602 | 21 | 0 | 0.0 | 0.0 | 0.00 | 0.00 | 0.00 | 96 | 1013.7 |
| 20260906093107 | 21 | 0 | 0.0 | 0.0 | 0.00 | 0.00 | 0.00 | 96 | 1013.7 |
| 20260906091550 | 21 | 0 | 0.0 | 0.0 | 0.00 | 0.00 | 0.00 | 96 | 1013.5 |
| 20260906090114 | 21 | 0 | 0.0 | 0.0 | 0.00 | 0.00 | 0.00 | 96 | 1013.3 |
| 20260906084552 | 21 | 0 | 0.0 | 0.0 | 0.00 | 0.00 | 0.00 | 96 | 1013.2 |
| 20260906083053 | 21 | 0 | 0.0 | 0.0 | 0.00 | 0.00 | 0.00 | 96 | 1013.2 |
| 20260906081551 | 21 | 0 | 0.0 | 0.0 | 0.00 | 0.00 | 0.00 | 96 | 1013.1 |
| 20260906080055 | 21 | 0 | 0.0 | 0.0 | 0.00 | 0.00 | 0.00 | 96 | 1012.9 |
| 20260906074600 | 21 | 0 | 0.0 | 0.0 | 0.00 | 0.00 | 0.00 | 96 | 1013.1 |
| 20260906073057 | 21 | 0 | 0.0 | 0.0 | 0.00 | 0.00 | 0.00 | 96 | 1013.0 |
| 20260906071552 | 21 | 0 | 0.0 | 0.0 | 0.00 | 0.00 | 0.00 | 96 | 1013.0 |
| 20260906070045 | 21 | 0 | 0.0 | 0.0 | 0.00 | 0.00 | 0.00 | 96 | 1013.1 |
| 20260906064544 | 21 | 0 | 0.0 | 0.0 | 0.00 | 0.00 | 0.00 | 96 | 1013.1 |
| 20260906063048 | 21 | 0 | 0.0 | 0.0 | 0.00 | 0.00 | 0.00 | 96 | 1013.1 |
| 20260906061550 | 21 | 0 | 0.0 | 0.0 | 0.00 | 0.00 | 0.00 | 95 | 1013.2 |
| 20260906060054 | 21 | 0 | 0.0 | 0.0 | 0.00 | 0.00 | 0.00 | 96 | 1013.4 |
| 20260906054553 | 22 | 0 | 0.0 | 0.0 | 0.00 | 0.00 | 0.00 | 95 | 1013.4 |
| 20260906053100 | 22 | 0 | 0.0 | 0.0 | 0.00 | 0.00 | 0.00 | 95 | 1013.5 |
| 20260906051555 | 22 | 0 | 0.0 | 0.0 | 0.00 | 0.00 | 0.00 | 95 | 1013.6 |
| 20260906050052 | 22 | 0 | 0.0 | 0.0 | 0.00 | 0.00 | 0.00 | 95 | 1013.9 |
| 20260906044547 | 22 | 0 | 0.0 | 0.0 | 0.00 | 0.00 | 0.00 | 95 | 1013.8 |
| 20260906043058 | 22 | 0 | 0.0 | 0.0 | 0.00 | 0.00 | 0.00 | 94 | 1013.9 |
| 20260906041556 | 22 | 0 | 0.0 | 0.0 | 0.00 | 0.00 | 0.00 | 94 | 1013.8 |
| 20260906040050 | 22 | 0 | 0.0 | 0.0 | 0.00 | 0.00 | 0.00 | 93 | 1014.0 |
| 20260906034558 | 22 | 0 | 0.0 | 0.0 | 0.00 | 0.00 | 0.00 | 93 | 1014.1 |
| 20260906033046 | 22 | 0 | 0.0 | 0.0 | 0.00 | 0.00 | 0.00 | 92 | 1014.1 |
| 20260906031547 | 23 | 0 | 0.0 | 0.0 | 0.00 | 0.00 | 0.00 | 92 | 1014.2 |
| 20260906030050 | 23 | 0 | 0.0 | 0.0 | 0.00 | 0.00 | 0.00 | 91 | 1014.4 |
| 20260906024612 | 23 | 0 | 0.0 | 0.0 | 0.00 | 0.00 | 0.00 | 89 | 1014.5 |
| 20260906023059 | 23 | 0 | 0.0 | 0.0 | 0.00 | 0.00 | 0.00 | 89 | 1014.6 |
| 20260906021558 | 23 | 0 | 0.0 | 0.0 | 0.00 | 0.00 | 0.00 | 88 | 1014.6 |
| 20260906020055 | 23 | 0 | 0.0 | 0.0 | 0.00 | 0.00 | 0.00 | 87 | 1014.6 |
| 20260906014554 | 23 | 0 | 0.0 | 0.0 | 0.00 | 0.00 | 0.00 | 87 | 1014.4 |
| 20260906013047 | 24 | 0 | 0.0 | 0.0 | 0.00 | 0.00 | 0.00 | 86 | 1014.2 |
| 20260906011555 | 24 | 0 | 0.0 | 0.0 | 0.00 | 0.00 | 0.00 | 86 | 1014.2 |
| 20260906010128 | 24 | 0 | 0.0 | 0.0 | 0.00 | 0.00 | 0.00 | 86 | 1014.0 |
| 20260906004550 | 25 | 0 | 0.0 | 1.6 | 0.00 | 0.00 | 0.00 | 86 | 1013.2 |
| 20260906003047 | 25 | 0 | 0.0 | 0.0 | 0.00 | 0.00 | 0.00 | 85 | 1013.1 |
| 20260906001604 | 25 | 0 | 0.0 | 1.6 | 0.00 | 0.00 | 0.00 | 83 | 1012.8 |
| 20260906000056 | 25 | 0 | 0.0 | 0.0 | 0.00 | 0.00 | 0.00 | 82 | 1012.4 |
| 20260905234551 | 25 | 0 | 0.0 | 0.0 | 0.00 | 0.00 | 0.00 | 82 | 1011.8 |
| 20260905233056 | 26 | 0 | 0.0 | 0.0 | 0.00 | 0.00 | 0.00 | 80 | 1011.8 |
| 20260905231553 | 26 | 0 | 0.0 | 1.6 | 0.00 | 0.00 | 0.00 | 80 | 1012.7 |
| 20260905230052 | 28 | 131 | 1.6 | 8.0 | 0.00 | 0.00 | 0.00 | 77 | 1013.1 |
| 20260905224554 | 30 | 77 | 0.0 | 6.4 | 0.00 | 0.00 | 0.00 | 67 | 1013.2 |
| 20260905223054 | 31 | 20 | 1.6 | 6.4 | 0.00 | 0.00 | 0.00 | 67 | 1012.5 |
| 20260905221553 | 32 | 0 | 0.0 | 0.0 | 0.00 | 0.00 | 0.00 | 68 | 1011.9 |
| 20260905220047 | 32 | 0 | 0.0 | 3.2 | 0.00 | 0.00 | 0.00 | 65 | 1011.9 |
| 20260905214554 | 33 | 0 | 0.0 | 1.6 | 0.00 | 0.00 | 0.00 | 63 | 1011.7 |
| 20260905213105 | 33 | 0 | 0.0 | 0.0 | 0.00 | 0.00 | 0.00 | 66 | 1011.6 |
| 20260905211548 | 33 | 0 | 0.0 | 0.0 | 0.00 | 0.00 | 0.00 | 63 | 1011.7 |
| 20260905210057 | 35 | 0 | 0.0 | 1.6 | 0.00 | 0.00 | 0.00 | 55 | 1012.1 |
| 20260905204551 | 36 | 0 | 0.0 | 0.0 | 0.00 | 0.00 | 0.00 | 55 | 1012.3 |
| 20260905203055 | 35 | 0 | 0.0 | 1.6 | 0.00 | 0.00 | 0.00 | 61 | 1012.6 |
| 20260905201556 | 35 | 0 | 0.0 | 1.6 | 0.00 | 0.00 | 0.00 | 59 | 1012.7 |
| 20260905200059 | 35 | 0 | 0.0 | 1.6 | 0.00 | 0.00 | 0.00 | 55 | 1012.9 |
| 20260905194552 | 35 | 0 | 0.0 | 3.2 | 0.00 | 0.00 | 0.00 | 58 | 1012.9 |
| 20260905193048 | 35 | 0 | 0.0 | 1.6 | 0.00 | 0.00 | 0.00 | 61 | 1012.9 |
| 20260905191554 | 35 | 0 | 0.0 | 1.6 | 0.00 | 0.00 | 0.00 | 56 | 1013.1 |
| 20260905190100 | 34 | 318 | 0.0 | 6.4 | 0.00 | 0.00 | 0.00 | 61 | 1013.5 |
| 20260905184552 | 35 | 227 | 0.0 | 1.6 | 0.00 | 0.00 | 0.00 | 62 | 1013.7 |
| 20260905183106 | 34 | 310 | 0.0 | 6.4 | 0.00 | 0.00 | 0.00 | 63 | 1013.7 |
| 20260905181544 | 33 | 304 | 1.6 | 3.2 | 0.00 | 0.00 | 0.00 | 64 | 1014.0 |
| 20260905180054 | 33 | 263 | 0.0 | 6.4 | 0.00 | 0.00 | 0.00 | 67 | 1014.1 |
| 20260905174548 | 33 | 0 | 0.0 | 3.2 | 0.00 | 0.00 | 0.00 | 66 | 1014.2 |
| 20260905173053 | 32 | 322 | 1.6 | 4.8 | 0.00 | 0.00 | 0.00 | 68 | 1014.4 |
| 20260905171553 | 32 | 271 | 0.0 | 3.2 | 0.00 | 0.00 | 0.00 | 68 | 1014.6 |
| 20260905170057 | 32 | 0 | 0.0 | 8.0 | 0.00 | 0.00 | 0.00 | 70 | 1014.7 |
| 20260905164603 | 31 | 0 | 1.6 | 6.4 | 0.00 | 0.00 | 0.00 | 70 | 1014.9 |
| 20260905163053 | 31 | 305 | 1.6 | 6.4 | 0.00 | 0.00 | 0.00 | 72 | 1015.2 |
| 20260905161546 | 31 | 282 | 1.6 | 3.2 | 0.00 | 0.00 | 0.00 | 74 | 1015.4 |
| 20260905160055 | 30 | 0 | 0.0 | 1.6 | 0.00 | 0.00 | 0.00 | 76 | 1015.6 |
| 20260905154553 | 30 | 0 | 0.0 | 1.6 | 0.00 | 0.00 | 0.00 | 78 | 1015.7 |
| 20260905153052 | 29 | 0 | 0.0 | 1.6 | 0.00 | 0.00 | 0.00 | 79 | 1015.9 |
| 20260905151551 | 28 | 0 | 0.0 | 3.2 | 0.00 | 0.00 | 0.00 | 79 | 1015.9 |
| 20260905150059 | 28 | 252 | 0.0 | 1.6 | 0.00 | 0.00 | 0.00 | 81 | 1015.8 |
| 20260905144556 | 27 | 0 | 0.0 | 1.6 | 0.00 | 0.00 | 0.00 | 83 | 1015.8 |
| 20260905143052 | 27 | 0 | 0.0 | 0.0 | 0.00 | 0.00 | 0.00 | 85 | 1015.9 |
| 20260905141547 | 26 | 311 | 0.0 | 3.2 | 0.00 | 0.00 | 0.00 | 87 | 1015.9 |
| 20260905140109 | 25 | 0 | 0.0 | 1.6 | 0.00 | 0.00 | 0.00 | 91 | 1015.9 |
| 20260905134600 | 25 | 0 | 0.0 | 0.0 | 0.00 | 0.00 | 0.00 | 94 | 1015.9 |
| 20260905133045 | 23 | 0 | 0.0 | 0.0 | 0.00 | 0.00 | 0.00 | 96 | 1016.0 |
| 20260905131558 | 23 | 0 | 0.0 | 1.6 | 0.00 | 0.00 | 0.00 | 96 | 1016.1 |
| 20260905130050 | 23 | 0 | 0.0 | 0.0 | 0.00 | 0.00 | 0.00 | 96 | 1016.2 |
| 20260905124547 | 22 | 0 | 0.0 | 0.0 | 0.00 | 0.00 | 0.00 | 96 | 1016.2 |
| 20260905123103 | 22 | 0 | 0.0 | 0.0 | 0.00 | 0.00 | 0.00 | 96 | 1016.1 |
| 20260905121545 | 22 | 0 | 0.0 | 0.0 | 0.00 | 0.00 | 0.00 | 96 | 1015.9 |
| 20260905120047 | 22 | 0 | 0.0 | 0.0 | 0.00 | 0.00 | 0.00 | 96 | 1015.8 |
| 20260905114556 | 21 | 0 | 0.0 | 0.0 | 0.00 | 0.00 | 0.00 | 96 | 1015.5 |